FW8732 Weather Reports


time (UTC)temp
F
wind
direction
speed
knots
gust
knots
rain 1hr
in
rain 24hr
in
rain mn
in
humidity
%
barometer
mb
20260508023055 48 212 0.9 4.3 0.00 1.02 1.02 99 1002.2
20260508021613 48 235 2.6 5.2 0.00 1.02 1.02 99 1001.9
20260508020053 48 264 1.7 5.2 0.00 1.02 1.02 99 1002.1
20260508014551 48 253 1.7 5.2 0.00 1.02 1.02 99 1002.1
20260508013106 48 249 0.9 5.2 0.00 1.02 1.02 99 1001.9
20260508011557 48 215 1.7 7.0 0.00 1.02 1.02 98 1001.9
20260508010055 49 283 1.7 8.7 0.00 1.02 1.02 98 1002.3
20260508004559 49 236 1.7 7.8 0.00 1.02 1.02 98 1002.2
20260508003105 49 229 1.7 8.7 0.00 1.02 1.02 99 1002.3
20260508001553 50 264 1.7 6.1 0.00 1.02 1.02 99 1002.3
20260508000054 49 245 1.7 5.2 0.00 1.02 1.02 99 1002.5
20260507234554 49 229 1.7 6.1 0.00 1.02 1.02 98 1002.6
20260507233053 50 183 2.6 7.0 0.00 1.02 1.02 98 1002.5
20260507231557 50 187 1.7 6.1 0.00 1.02 1.02 98 1002.4
20260507230050 50 207 1.7 6.1 0.00 1.02 1.02 98 1002.5
20260507224604 50 166 2.6 7.8 0.00 1.02 1.02 98 1002.6
20260507223056 50 196 1.7 9.6 0.01 1.02 1.02 98 1002.5
20260507221551 50 166 4.3 11.3 0.04 1.02 1.02 98 1003.0
20260507220055 50 187 4.3 11.3 0.09 1.02 1.02 98 1002.8
20260507214555 51 228 3.5 10.4 0.16 1.02 1.02 98 1002.8
20260507213055 50 156 3.5 10.4 0.23 1.01 1.01 98 1002.9
20260507211557 49 183 1.7 8.7 0.29 0.98 0.98 98 1002.7
20260507210119 49 184 3.5 9.6 0.32 0.93 0.93 98 1002.2
20260507204557 49 164 3.5 11.3 0.34 0.86 0.86 98 1002.6
20260507203107 49 157 3.5 7.8 0.35 0.78 0.78 98 1003.5
20260507201602 49 192 3.5 10.4 0.35 0.69 0.69 98 1003.8
20260507200104 49 187 4.3 13.9 0.33 0.60 0.60 97 1004.1
20260507194552 49 173 7.0 17.4 0.31 0.51 0.51 97 1004.7
20260507193111 50 205 6.1 13.0 0.29 0.42 0.42 97 1005.1
20260507191557 50 252 5.2 10.4 0.25 0.34 0.34 96 1005.0
20260507190052 51 277 4.3 11.3 0.19 0.27 0.27 96 1005.1
20260507184554 52 226 7.8 20.0 0.12 0.20 0.20 96 1004.9
20260507183059 53 247 7.0 14.8 0.05 0.13 0.13 95 1005.3
20260507181554 54 183 6.1 17.4 0.01 0.09 0.09 94 1005.1
20260507180058 55 160 7.8 16.5 0.00 0.08 0.08 93 1004.7
20260507174600 55 186 7.8 18.2 0.00 0.08 0.08 91 1004.9
20260507173129 55 147 8.7 22.6 0.00 0.08 0.08 92 1005.0
20260507171601 54 155 8.7 22.6 0.00 0.08 0.08 92 1005.5
20260507170100 54 169 9.6 18.2 0.00 0.08 0.08 93 1005.7
20260507164606 54 186 7.8 22.6 0.00 0.08 0.08 92 1006.1
20260507163102 54 247 11.3 24.3 0.00 0.08 0.08 93 1006.1
20260507161616 54 175 9.6 22.6 0.00 0.08 0.08 92 1006.8
20260507160117 53 176 9.6 21.7 0.00 0.08 0.08 94 1007.3
20260507154604 53 187 8.7 20.9 0.00 0.08 0.08 93 1008.1
20260507153054 54 175 11.3 23.5 0.00 0.08 0.08 93 1008.2
20260507151553 54 187 13.0 26.1 0.00 0.08 0.08 92 1008.6
20260507150106 54 147 10.4 21.7 0.00 0.08 0.08 93 1008.8
20260507144604 54 186 11.3 20.9 0.00 0.08 0.08 94 1009.0
20260507143106 53 142 9.6 23.5 0.00 0.08 0.08 94 1009.4
20260507141615 53 182 11.3 23.5 0.00 0.08 0.08 95 1009.8
20260507140100 53 194 10.4 25.2 0.00 0.08 0.08 94 1010.1
20260507134606 53 173 9.6 22.6 0.00 0.08 0.08 94 1010.1
20260507133059 54 158 11.3 21.7 0.00 0.08 0.08 93 1010.2
20260507131556 55 188 12.2 26.1 0.00 0.08 0.08 94 1010.1
20260507130054 55 160 13.9 25.2 0.01 0.08 0.08 95 1010.1
20260507124554 54 162 9.6 26.1 0.01 0.08 0.08 95 1009.6
20260507123053 54 162 12.2 27.8 0.02 0.08 0.08 96 1010.3
20260507121558 53 170 13.9 29.5 0.02 0.08 0.08 96 1010.4
20260507120055 53 158 11.3 21.7 0.01 0.07 0.07 97 1011.1
20260507114600 52 153 10.4 24.3 0.01 0.07 0.07 98 1011.2
20260507113055 52 183 10.4 23.5 0.01 0.06 0.06 98 1011.9
20260507111600 51 179 10.4 20.9 0.01 0.06 0.06 98 1012.2
20260507110050 51 152 9.6 19.1 0.02 0.06 0.06 98 1011.5
20260507104554 50 156 7.0 15.6 0.02 0.06 0.06 98 1012.2
20260507103048 51 182 7.0 15.6 0.01 0.05 0.05 98 1012.5
20260507101607 51 180 6.1 14.8 0.01 0.05 0.05 98 1012.8
20260507100051 52 154 6.1 11.3 0.01 0.04 0.04 99 1012.4
20260507094557 52 276 5.2 10.4 0.01 0.04 0.04 99 1012.6
20260507093054 51 254 3.5 10.4 0.01 0.04 0.04 99 1012.9
20260507091557 51 210 3.5 13.9 0.01 0.04 0.04 99 1013.1
20260507090049 51 166 7.8 15.6 0.01 0.03 0.03 99 1012.7
20260507084552 50 151 6.1 12.2 0.02 0.03 0.03 98 1012.7
20260507083053 50 204 5.2 15.6 0.03 0.03 0.03 99 1013.0
20260507081549 50 271 1.7 8.7 0.03 0.03 0.03 98 1013.0
20260507080057 50 163 2.6 7.8 0.02 0.02 0.02 98 1013.3
20260507074558 50 183 3.5 9.6 0.01 0.01 0.01 98 1013.3
20260507073053 50 173 5.2 13.0 0.00 0.00 0.00 98 1013.8
20260507071551 51 165 5.2 11.3 0.00 0.00 0.00 98 1014.0
20260507070058 51 141 6.1 10.4 0.00 0.00 0.00 98 1014.2
20260507064608 51 171 0.9 5.2 0.00 0.00 0.00 98 1014.2
20260507063057 51 0 1.7 5.2 0.00 0.00 0.00 98 1014.3
20260507061553 51 141 1.7 7.8 0.00 0.00 0.00 98 1014.5
20260507060054 51 277 1.7 7.0 0.00 0.00 0.00 98 1014.9
20260507054606 51 171 3.5 8.7 0.00 0.00 0.00 98 1015.0
20260507053055 50 216 2.6 7.0 0.00 0.00 0.00 98 1015.2
20260507051555 50 170 0.9 4.3 0.00 0.00 0.00 97 1015.5
20260507050052 50 0 1.7 7.0 0.00 0.00 0.00 97 1015.9
20260507044552 50 183 2.6 7.8 0.00 0.00 0.00 97 1016.2
20260507043059 51 252 2.6 8.7 0.00 0.00 0.00 97 1016.5
20260507041600 51 256 2.6 12.2 0.00 0.00 0.00 97 1016.8
20260507040057 51 229 3.5 9.6 0.00 0.00 0.00 97 1017.0
20260507034557 51 206 1.7 7.8 0.00 0.00 0.00 97 1017.0
20260507033052 50 206 1.7 7.8 0.00 0.00 0.00 96 1017.4
20260507031555 50 192 3.5 8.7 0.00 0.00 0.00 96 1017.6
20260507030058 51 189 1.7 9.6 0.00 0.00 0.00 96 1017.7
20260507024552 51 271 3.5 9.6 0.00 0.00 0.00 95 1017.9